Regional Weather Roundup
Issued by NWS

Home | Current Version | Previous Version | Graphics & Text | Print | Product List | Glossary On
Versions: 1 2 3 4 5 6 7 8 9 10 11 12 13 14 15 16 17 18 19 20 21 22 23 24 25 26 27 28 29 30 31 32 33 34 35 36 37 38 39 40 41 42 43 44 45 46 47 48 49 50
572
ASUS43 KDMX 231706
RWRIA

WEATHER ROUNDUP FOR IOWA
NATIONAL WEATHER SERVICE DES MOINES IA
1200 PM CDT SAT SEP 23 2017

NOTE: "FAIR" INDICATES FEW OR NO CLOUDS BELOW 12,000 FEET WITH NO
SIGNIFICANT WEATHER AND/OR OBSTRUCTIONS TO VISIBILITY.

* - THESE STATIONS ARE NOT NWS STATIONS...THUS NOT UNDER NWS
QUALITY CONTROL.  THEY ALSO DO NOT REPORT WEATHER SUCH
AS PRECIPITATION OR FOG.

IAZ001>003-012>014-020>022-031>034-043>046-231800-
   NORTHWEST IOWA

CITY           SKY/WX    TMP DP  RH WIND       PRES   REMARKS
CARROLL *      SUNNY     86  68  54 S10G20    29.99F HX  89
CHEROKEE *     MOSUNNY   82  70  68 S14       29.96F HX  85
DENISON *      PTSUNNY   84  68  58 S9        29.99F HX  87
LE MARS *      SUNNY     81  70  69 S9G17     29.94F HX  84
ORANGE CITY *  SUNNY     81  72  74 S8        29.95F HX  84
SHELDON *      MOSUNNY   81  70  69 S7G15     29.95S HX  84
SIOUX CITY     SUNNY     80  70  71 S10       29.93F HX  83
SPENCER        SUNNY     83  69  62 S9        29.97F HX  86
STORM LAKE *   SUNNY     82  68  61 SW14      29.99S HX  85
$$

IAZ055>058-069>071-079>083-090>094-231800-
   SOUTHWEST IOWA

CITY           SKY/WX    TMP DP  RH WIND       PRES   REMARKS
ATLANTIC *     SUNNY     86  66  51 S14G22    29.99F HX  88
AUDUBON *      SUNNY     86  70  58 S10G17    30.01F HX  90
CLARINDA *     SUNNY     88  66  48 S14       30.02F HX  90
COUNCIL BLFS * SUNNY     84  68  58 S13G21    29.97F HX  87
CRESTON *      MOSUNNY   86  66  51 S17       30.04F HX  88
HARLAN  *      PTSUNNY   86  66  51 MISG      30.01F HX  88
LAMONI         SUNNY     86  68  54 S10       30.04F HX  89
RED OAK *      SUNNY     88  66  48 SW17      29.99F HX  90
SHENANDOAH *   MOSUNNY   88  66  48 S16       29.99F HX  90
$$

IAZ047>049-059>061-072>074-084-231800-
   CENTRAL IOWA

CITY           SKY/WX    TMP DP  RH WIND       PRES   REMARKS
AMES           SUNNY     87  68  52 S14G22    30.02F HX  90
ANKENY *       SUNNY     86  68  54 S10       30.03F HX  89
BOONE *        SUNNY     88  66  48 S13G18    30.01F HX  90
CHARITON *     SUNNY     86  68  54 VRB6G15   30.04F HX  89
DES MOINES     MOSUNNY   88  66  48 S14       30.02F HX  90
GRINNELL*      SUNNY     87  65  47 SW9       30.06F HX  89
KNOXVILLE *    SUNNY     88  66  48 S8        30.03F HX  90
MARSHALLTOWN   MOSUNNY   87  67  51 SW10      30.03F HX  90
NEWTON *       SUNNY     88  66  48 S12       30.04F HX  90
PELLA *        SUNNY     89  66  45 SW7       30.05F HX  91
PERRY *          N/A     89  62  40 S15       30.01F HX  89
$$

IAZ004>006-015-016-023>025-035-036-231800-
   NORTH CENTRAL IOWA

CITY           SKY/WX    TMP DP  RH WIND       PRES   REMARKS
ALGONA *       MOSUNNY   84  70  61 S10       30.00F HX  88
CLARION *      MOSUNNY   86  70  58 S10G17    30.01F HX  90
ESTHERVILLE    SUNNY     81  70  69 S9        29.98F HX  84
FORT DODGE *   SUNNY     85  70  60 S8G17     30.01F HX  89
MASON CITY     MOSUNNY   85  68  56 SW14      30.03F HX  88
FOREST CITY *    N/A     82  68  61 S12G17    30.01S HX  85
WEBSTER CITY * MOSUNNY   88  66  48 S10G22    29.99F HX  90
IOWA FALLS *     N/A     87  67  51 S12G21    30.05S HX  89
$$

IAZ007>011-017>019-026>030-037>042-050>054-066-231800-
   NORTHEAST IOWA

CITY           SKY/WX    TMP DP  RH WIND       PRES   REMARKS
CEDAR RAPIDS   SUNNY     90  65  43 MISG      30.05F HX  92
CHARLES CITY * MOSUNNY   88  66  48 S16G23    30.04S HX  90
CLINTON *      SUNNY    N/A N/A N/A SW8       30.08F
DECORAH *      SUNNY     86  68  54 S8G16     30.04F HX  89
DUBUQUE        SUNNY     84  67  56 S7        30.09F HX  86
MONTICELLO *   SUNNY     90  66  45 VRB7      30.06F HX  92
OELWEIN *      MOSUNNY   88  66  48 SW14G21   30.06F HX  90
WATERLOO       MOSUNNY   87  64  46 SW14      30.03S HX  88
$$

IAZ064-065-067-068-078-231800-
   EAST CENTRAL IOWA

CITY           SKY/WX    TMP DP  RH WIND       PRES   REMARKS
DAVENPORT      SUNNY     88  67  49 S5        30.09F HX  91
IOWA CITY      SUNNY     90  67  46 CALM      30.07F HX  93
MT. PLEASANT * SUNNY     90  64  41 SE8       30.07S HX  91
MUSCATINE *    SUNNY     88  68  51 S7        30.06F HX  91
QUAD CITIES    SUNNY     90  66  45 SW7       30.06F HX  92
$$

IAZ062-063-075>077-085>089-095>099-231800-
   SOUTHEAST IOWA

CITY           SKY/WX    TMP DP  RH WIND       PRES   REMARKS
BURLINGTON     SUNNY     89  68  49 SE5       30.07S HX  93
FAIRFIELD *    SUNNY     88  66  48 VRB5G12   30.06S HX  90
FORT MADISON * SUNNY     91  66  43 S5        30.08S HX  94
KEOKUK *       SUNNY     90  64  43 S5G12     30.06F HX  91
OSKALOOSA *      N/A     89  66  46 SW9       30.06S HX  91
OTTUMWA        SUNNY     88  69  53 S9        30.05F HX  92
WASHINGTON *   SUNNY     90  68  48 VRB5      30.07F HX  93
$$

ABBREVIATIONS USED IN REMARKS
   TC - TEMPERATURES IN CELSIUS
  WCI - WIND CHILL INDEX
   HX - HEAT INDEX
  VSB - VISIBILITY
$$





USA.gov is the U.S. government's official web portal to all federal, state and local government web resources and services.